Location: Tel Aviv
(32.0670°N, 34.7670°E)
Time: 02:32:17
(UTC+02:00)

Transit 4A - Pass Details

Date: 11 December 2023
Orbit: 869 x 974 km, 66.8° (Epoch: 23 February)

Event Time Altitude Azimuth Distance (km) Brightness Sun altitude
Exits shadow 04:16:15 54° 202° (SSW) 1,063 8.0 -27.8°
Drops below altitude 10° 04:20:59 10° 168° (SSE) 2,522 10.4 -26.8°
Sets 04:23:27 0° 165° (SSE) 3,449 11.2 -26.3°
